This demonstration page uses our WeatherBlox Daily Observations layout. Learn more.

Left ArrowRight Arrow

41.86663, -103.66717

Hourly Observations for March 23, 2018

Temp ( °F °C ) Dew Point ( °F °C ) Humidity (%) Winds ( mph kmh ) Pressure ( in mb ) Visibility ( mi km ) Precip ( " mm )
12:53 am 00:53 Partly Cloudy 52 11.1 36 2.2 55 55 SE 20 31 29.78 1009 10 16 N/A
1:53 am 01:53 Mostly Cloudy 50 10 37 2.8 61 61 SE 16 26 29.74 1007 10 16 N/A
2:53 am 02:53 Clear 46 7.8 37 2.8 71 71 ESE 15 24 29.73 1007 10 16 N/A
3:53 am 03:53 Mostly Clear 45 7.2 38 3.3 77 77 E 10 17 29.72 1006 10 16 N/A
4:53 am 04:53 Mostly Cloudy 45 7.2 38 3.3 77 77 ESE 14 22 29.72 1006 10 16 N/A
5:53 am 05:53 Partly Cloudy 43 6.1 38 3.3 82 82 ESE 12 19 29.74 1007 10 16 N/A
6:53 am 06:53 Mostly Cloudy 42 5.6 38 3.3 85 85 ESE 10 17 29.75 1007 8 13 N/A
7:53 am 07:53 Mostly Sunny 44 6.7 39 3.9 83 83 ESE 10 17 29.73 1007 7 11 N/A
8:53 am 08:53 Sunny 47 8.3 40 4.4 77 77 SE 14 22 29.72 1007 9 14 N/A
9:53 am 09:53 Sunny 52 11.1 40 4.4 64 64 ESE 12 19 29.69 1006 10 16 N/A
10:53 am 10:53 Mostly Sunny 54 12.2 42 5.6 64 64 ESE 10 17 29.66 1004 10 16 N/A
11:53 am 11:53 Mostly Cloudy 56 13.3 41 5 57 57 ESE 14 22 29.67 1005 10 16 N/A
12:53 pm 12:53 Cloudy 57 13.9 41 5 55 55 W 5 7 29.70 1006 10 16 N/A
1:53 pm 13:53 Cloudy 57 13.9 43 6.1 60 60 N N/A 29.67 1005 10 16 0.01 0.25
2:53 pm 14:53 Sunny 57 13.9 44 6.7 62 62 SE 7 11 29.65 1004 10 16 N/A
3:53 pm 15:53 Sunny 57 13.9 45 7.2 64 64 SE 8 13 29.67 1005 10 16 N/A
4:53 pm 16:53 Mostly Cloudy 59 15 43 6.1 56 56 NNE 13 20 29.69 1005 10 16 N/A
5:28 pm 17:28 Cloudy with Nearby Thunderstorms 55 13 45 7 67 67 N 15 24 29.68 1005 10 16 N/A
5:53 pm 17:53 Cloudy with Light Rain 54 12.2 43 6.1 67 67 NNW 18 30 29.77 1008 9 14 0.01 0.25
6:53 pm 18:53 Cloudy 51 10.6 45 7.2 80 80 NNW 6 9 29.79 1009 10 16 0.01 0.25
7:53 pm 19:53 Mostly Cloudy 48 8.9 43 6.1 83 83 N 5 7 29.84 1010 10 16 N/A
8:53 pm 20:53 Cloudy with Light Rain 49 9.4 44 6.7 83 83 WNW 10 17 29.89 1012 10 16 N/A
9:53 pm 21:53 Cloudy 46 7.8 42 5.6 86 86 NNW 17 28 29.92 1013 10 16 0.04 1.02
10:53 pm 22:53 Cloudy with Light Rain 44 6.7 40 4.4 85 85 NNW 10 17 29.95 1014 10 16 0.01 0.25
11:53 pm 23:53 Mostly Cloudy 41 5 39 3.9 93 93 WSW 6 9 29.93 1014 10 16 N/A

Powered by AerisWeather